DELTA 1 DEB, 7074

Orbit data source: Space-Track

DELTA 1 DEB, 7074 is space debris in SSO originally from a launch on Tue, 06 Nov 1973 UTC launched from the Air Force Western Test Range (AFWTR). Debris objects in space refer to the collection of defunct objects orbiting the Earth. Examples of debris include non-operational satellites, rocket bodies, and fragments generated from explosions, collisions, or faulty payload assembly.

Loading next visibility...
Identifier
7074, 1973-086BS
Orbit
SSO
Country
Flag of USUS
Related business
Manufacturer
Unknown
Mission
Spacecraft
Bus & Motor
Unknown
Mass
Unknown
Launch date (UTC)
1973-11-06 (53 years ago)
Launch vehicle
Unknown
Launch site
Air Force Western Test Range (AFWTR)
Object type
Payload
Rocket body
Debris
Shape & HBR
Unknown shape, 0.1 m
Radar Cross Section
Medium (>0.1 m² and <1 m²)

Expand to show TLE details & history
Last TLE update: 17 hours ago

TLE from 17 hours ago
0 DELTA 1 DEB
1 07074U 73086BS  26206.61000600 -.00000047  00000-0  57808-5 0  9996
2 07074 101.9410 320.9174 0176448  35.3828 338.2935 12.72209310447152
Epoch: 2026-07-25T14:38Z
TLE epoch observation values (Epoch: 2026-07-25T14:38:24.518Z)
Latitude
12.59469°
Longitude
155.30083°
Altitude
1,248.052 km
Speed
7.291 km/s
True Right ascension
21h 12m 53s
True Declination
12° 31' 35"
Sunlit
Object was in full shadow at epoch
Visualization orbit readout
Latitude
Unknown
Longitude
Unknown
Altitude
Unknown
Speed
Unknown
Apparent Right ascension
Unknown
Apparent Declination
Unknown
Sunlit
N/A
Visualization observer readout
Local Sidereal Time
21:18:01
Azimuth
Unknown
Elevation
Unknown
Doppler factor
Unknown
Orbital elements
Apogee altitude
1,507.204 km
Perigee altitude
1,233.759 km
Semi-major axis
7,748.618 km
Eccentricity
0.01764
Inclination
101.941°
RAAN
320.9174°
Arg. of periapsis
35.3828°
True anomaly
337.53007°
Mean anomaly
338.2935°
Eccentric anomaly
337.91337°
Mean motion
3.18205 °/min
Orbital period
113.13 mins
BSTAR
0.0000057808
Loading maneuver chart data...
Computing Atmospheric mass density...
Loading historical data...
Loading historical data...
Loading historical data...
Loading historical data...
Loading historical data...
Loading historical data...
Loading historical data...

Documentation

Showing up to 5 results
|